Voltar ao catálogo

FENGYUN 1C DEB

AtivoPO
NORAD 31781·DEBRIS·🇨🇳 China

Lançado May 10, 1999 de Taiyuan Satellite Launch Center

Loading…

Próximas Passagens (próximas 24 horas)

TLE

EnvelhecendoSource: Space-Track

Época: Sep 5, 2026, 07:52 UTC

1 31781U 99025CGG 26248.32835677  .00002805  00000-0  12055-2 0  9998
2 31781  99.5016  81.5954 0190944 249.6837 108.3725 14.16309236721180

Acompanhe FENGYUN 1C DEB em tempo real com AllMySat

Download on the App Store